Hourly Data Report for September 19, 2017

All times are specified in Local Standard Time (LST). Add 1 hour to adjust for Daylight Saving Time where and when it is observed.

TORONTO INTL A
ONTARIO

43°40'36.000" N
79°37'50.000" W
173.40 m
6158731
71624
YYZ

Download Data

Hourly Data (September 2017)
Hourly Data Report for September 19, 2017
Temp Definition
°C
Dew Point Temp Definition
°C
Rel Hum Definition
%
Wind Dir Definition
10's deg

Wind Spd Definition
km/h
Visibility Definition
km
Stn Press Definition
kPa
Hmdx Definition


Wind Chill Definition


Weather Definition


TIME
00:00 Legend Double Dagger 19.9 18.1 89 36 10 24.1 99.67     LegendNANA
01:00 Legend Double Dagger 19.5 18.0 91 2 8 24.1 99.62     Mostly Cloudy
02:00 Legend Double Dagger 19.3 17.9 92 35 13 24.1 99.59     LegendNANA
03:00 Legend Double Dagger 19.1 17.9 92 34 16 24.1 99.59     LegendNANA
04:00 Legend Double Dagger 18.9 17.8 93 1 9 24.1 99.61     Mostly Cloudy
05:00 Legend Double Dagger 18.6 17.6 94 36 11 24.1 99.60     LegendNANA
06:00 Legend Double Dagger 19.0 18.0 94 36 15 9.7 99.60     Fog
07:00 Legend Double Dagger 19.6 18.4 93 36 16 9.7 99.63     Fog
08:00 Legend Double Dagger 20.7 18.6 88 36 10 9.7 99.66 27   Fog
09:00 Legend Double Dagger 22.0 19.1 83 1 5 12.9 99.66 29   LegendNANA
10:00 Legend Double Dagger 24.2 19.1 73 5 5 16.1 99.66 31   Mostly Cloudy
11:00 Legend Double Dagger 24.6 18.9 70 36 2 16.1 99.66 31   LegendNANA
12:00 Legend Double Dagger 25.9 19.6 68 13 10 16.1 99.61 33   LegendNANA
13:00 Legend Double Dagger 25.7 18.5 64 14 8 16.1 99.56 32   Mostly Cloudy
14:00 Legend Double Dagger 26.8 18.5 60 15 12 24.1 99.50 33   LegendNANA
15:00 Legend Double Dagger 25.9 18.9 65 13 14 24.1 99.47 33   LegendNANA
16:00 Legend Double Dagger 25.5 18.3 64 12 15 24.1 99.44 32   Mostly Cloudy
17:00 Legend Double Dagger 24.5 17.8 66 15 11 24.1 99.48 30   LegendNANA
18:00 Legend Double Dagger 23.5 18.1 71 10 9 24.1 99.49 30   LegendNANA
19:00 Legend Double Dagger 23.3 18.5 74 8 9 24.1 99.52 30   Mostly Cloudy
20:00 Legend Double Dagger 23.1 19.0 78 6 9 24.1 99.56 30   LegendNANA
21:00 Legend Double Dagger 22.1 18.2 78 9 12 24.1 99.56 28   LegendNANA
22:00 Legend Double Dagger 21.3 18.0 81 9 6 24.1 99.55 27   Mostly Cloudy
23:00 Legend Double Dagger 20.6 17.7 83 4 10 24.1 99.53 26   LegendNANA

Notes on Data Quality.

Legend

  • E = Estimated
  • M = Missing
  • NA = Not Available
  • ‡ = Partner data that is not subject to review by the National Climate Archives
Date modified: